Meteo Giornale » Osservazioni meteo Stati Uniti (USA) » Fort Lewis-Gray

ore: 06:55 - Osservazioni Meteo Fort Lewis-Gray
Lat. 47° 7' N Lon. 122° 33' W Alt. 92 metri s.l.m.

sereno

12 °C

Sereno

Temp. 24 Ore

11 °C

26 °C

Est/Sud-Est

7.4 Km/h

Dew point 10 °C

Umidità 87 %

Visibilità  10 Km

Il sole sorge alle ore 06:29

Il sole tramonta alle ore 19:50

Data e Ora Cielo e Fenomeni T °C DP °C Um. % Pres. hPa Vis. km Vento km/h
Oggi h: 06:55 sereno Sereno 12 10 87 1009 10 E/SE 7.4
Oggi h: 05:55 molto_nuvoloso Molto Nuvoloso 11 8 81 1009 10 N 5.5
Oggi h: 04:55 molto_nuvoloso Molto Nuvoloso 12 9 81 1009 10 E/SE 11.1
Oggi h: 03:55 nuvoloso Nuvoloso 12 9 81 1008 10 E/SE 9.3
Oggi h: 02:55 sereno Sereno 12 9 81 1008 10 N 0
Oggi h: 01:55 sereno Sereno 13 9 76 1008 10 E/SE 7.4
Oggi h: 00:55 sereno Sereno 14 9 71 1008 10 N 0
Ieri h: 23:55 sereno Sereno 17 10 63 1007 10 N 0
Ieri h: 22:55 sereno Sereno 18 10 59 1007 10 N 0
Ieri h: 21:55 sereno Sereno 20 10 52 1007 10 N 5.5
Ieri h: 20:55 sereno Sereno 21 10 49 1007 10 N 11.1
Ieri h: 19:55 sereno Sereno 23 9 40 1007 10 N/NO 9.3
Ieri h: 18:55 sereno Sereno 25 9 36 1007 10 N/NO 7.4
Ieri h: 17:55 molto_nuvoloso Molto Nuvoloso 26 10 36 1007 10 N/NO 11.1
Ieri h: 16:55 molto_nuvoloso Molto Nuvoloso 25 10 38 1007 10 N 7.4
Ieri h: 15:55 sereno Sereno 26 11 39 1007 10 N 13
Ieri h: 14:55 sereno Sereno 25 10 38 1008 10 N/NO 11.1
Ieri h: 13:55 sereno Sereno 24 10 41 1009 10 N/NO 13
Ieri h: 12:55 sereno Sereno 23 10 43 1010 10 O/NO 14.8
Ieri h: 11:55 sereno Sereno 22 10 46 1011 10 N/NO 16.7
Ieri h: 10:55 sereno Sereno 20 11 56 1011 10 N/NO 16.7
Ieri h: 09:55 sereno Sereno 19 12 63 1011 10 N/NO 13
Ieri h: 08:55 sereno Sereno 16 12 77 1012 10 N 7.4
Ieri h: 07:55 sereno Sereno 13 9 76 1012 10 N 0